GW6261 Weather Reports


time (UTC)temp
C
wind
direction
speed
KPH
gust
KPH
rain 1hr
cm
rain 24hr
cm
rain mn
cm
humidity
%
barometer
mb
20260506185057 28 143 4.8 11.3 0.00 0.00 0.00 82 1007.0
20260506184556 28 130 14.5 16.1 0.00 0.00 0.00 81 1007.0
20260506184056 28 153 1.6 11.3 0.00 0.00 0.00 82 1007.0
20260506183557 28 130 6.4 9.7 0.00 0.00 0.00 81 1007.0
20260506183056 28 167 3.2 8.0 0.00 0.00 0.00 81 1007.0
20260506182556 28 155 6.4 17.7 0.00 0.00 0.00 80 1007.0
20260506182057 28 132 6.4 17.7 0.00 0.00 0.00 80 1007.0
20260506181129 28 140 6.4 8.0 0.00 0.00 0.00 79 1007.0
20260506180602 28 136 6.4 6.4 0.00 0.00 0.00 80 1007.0
20260506180058 28 193 1.6 14.5 0.00 0.00 0.00 80 1007.0
20260506175557 28 121 4.8 11.3 0.00 0.00 0.00 80 1008.0
20260506175056 28 124 8.0 12.9 0.00 0.00 0.00 79 1007.0
20260506174556 28 138 8.0 11.3 0.00 0.00 0.00 81 1008.0
20260506174057 28 133 3.2 12.9 0.00 0.00 0.00 81 1008.0
20260506173557 28 130 8.0 12.9 0.00 0.00 0.00 82 1008.0
20260506173057 28 167 3.2 14.5 0.00 0.00 0.00 82 1008.0
20260506172557 28 138 8.0 11.3 0.00 0.00 0.00 82 1008.0
20260506172056 28 217 0.0 8.0 0.00 0.00 0.00 83 1008.0
20260506171557 27 130 8.0 14.5 0.00 0.00 0.00 83 1008.0
20260506171056 27 106 11.3 11.3 0.00 0.00 0.00 84 1008.0
20260506170557 27 135 8.0 16.1 0.00 0.00 0.00 84 1008.0
20260506170057 27 137 4.8 11.3 0.00 0.00 0.00 84 1008.0
20260506165557 27 168 1.6 11.3 0.00 0.00 0.00 85 1008.0
20260506165057 27 125 9.7 9.7 0.00 0.00 0.00 86 1008.0
20260506164556 27 140 8.0 9.7 0.00 0.00 0.00 88 1008.0
20260506164056 26 131 6.4 9.7 0.00 0.00 0.00 88 1008.0
20260506163557 26 117 6.4 11.3 0.00 0.00 0.00 89 1008.0
20260506163056 26 149 6.4 16.1 0.00 0.00 0.00 89 1008.0
20260506162556 26 98 8.0 9.7 0.00 0.00 0.00 89 1008.0
20260506162057 26 193 4.8 9.7 0.00 0.00 0.00 89 1008.0
20260506161557 26 133 9.7 14.5 0.00 0.00 0.00 89 1008.0
20260506161058 26 315 0.0 8.0 0.00 0.00 0.00 89 1008.0
20260506160556 26 161 6.4 8.0 0.00 0.00 0.00 90 1008.0
20260506160058 26 232 0.0 4.8 0.00 0.00 0.00 90 1008.0
20260506155605 26 206 1.6 9.7 0.00 0.00 0.00 90 1008.0
20260506155056 26 210 3.2 6.4 0.00 0.00 0.00 90 1008.0
20260506154556 26 188 1.6 8.0 0.00 0.00 0.00 91 1008.0
20260506154056 26 163 6.4 11.3 0.00 0.00 0.00 90 1008.0
20260506153557 26 174 3.2 12.9 0.00 0.00 0.00 90 1007.0
20260506153057 26 138 3.2 6.4 0.00 0.00 0.00 90 1007.0
20260506152558 26 127 8.0 12.9 0.00 0.00 0.00 90 1008.0
20260506152058 26 139 4.8 11.3 0.00 0.00 0.00 90 1007.0
20260506151556 26 122 12.9 14.5 0.00 0.00 0.00 90 1007.0
20260506151058 26 128 9.7 12.9 0.00 0.00 0.00 90 1007.0
20260506150556 26 120 8.0 11.3 0.00 0.00 0.00 90 1007.0
20260506150056 26 126 14.5 17.7 0.00 0.00 0.00 90 1007.0
20260506145556 26 141 6.4 16.1 0.00 0.00 0.00 90 1007.0
20260506145057 26 200 3.2 9.7 0.00 0.00 0.00 91 1007.0
20260506144118 26 124 8.0 14.5 0.00 0.00 0.00 91 1007.0
20260506143556 26 151 3.2 9.7 0.00 0.00 0.00 91 1007.0
20260506143057 25 165 3.2 9.7 0.00 0.00 0.00 91 1007.0
20260506142556 26 129 4.8 11.3 0.00 0.00 0.00 91 1007.0
20260506142057 26 143 3.2 6.4 0.00 0.00 0.00 91 1007.0
20260506141556 26 152 3.2 8.0 0.00 0.00 0.00 91 1007.0
20260506141057 25 176 1.6 11.3 0.00 0.00 0.00 91 1007.0
20260506140556 25 138 4.8 12.9 0.00 0.00 0.00 92 1007.0
20260506140056 25 140 9.7 14.5 0.00 0.00 0.00 92 1007.0
20260506135557 25 118 3.2 12.9 0.00 0.00 0.00 92 1007.0
20260506135056 25 166 3.2 8.0 0.00 0.00 0.00 92 1007.0
20260506134557 25 171 1.6 6.4 0.00 0.00 0.00 93 1007.0
20260506134057 25 115 3.2 4.8 0.00 0.00 0.00 93 1007.0
20260506133557 25 109 4.8 6.4 0.00 0.00 0.00 93 1007.0
20260506133056 25 114 4.8 6.4 0.00 0.00 0.00 94 1007.0
20260506132559 25 144 4.8 8.0 0.00 0.00 0.00 94 1007.0
20260506132056 25 130 6.4 8.0 0.00 0.00 0.00 94 1007.0
20260506131556 25 146 4.8 6.4 0.00 0.00 0.00 94 1007.0
20260506131057 25 118 1.6 8.0 0.00 0.00 0.00 95 1007.0
20260506130556 25 124 4.8 8.0 0.00 0.00 0.00 95 1007.0
20260506130056 25 122 4.8 6.4 0.00 0.00 0.00 95 1007.0
20260506125606 25 137 4.8 8.0 0.00 0.00 0.00 95 1007.0
20260506125056 25 117 3.2 8.0 0.00 0.00 0.00 95 1007.0
20260506124559 25 118 1.6 6.4 0.00 0.00 0.00 95 1007.0
20260506124057 25 128 4.8 8.0 0.00 0.00 0.00 95 1007.0
20260506123556 25 134 3.2 8.0 0.00 0.00 0.00 95 1007.0
20260506123057 25 125 8.0 11.3 0.00 0.00 0.00 95 1007.0
20260506122557 25 130 6.4 8.0 0.00 0.00 0.00 94 1007.0
20260506122057 25 95 0.0 3.2 0.00 0.00 0.00 94 1007.0
20260506121558 25 118 1.6 6.4 0.00 0.00 0.00 94 1007.0
20260506121056 25 160 4.8 17.7 0.00 0.00 0.00 95 1007.0
20260506120557 25 154 8.0 11.3 0.00 0.00 0.00 95 1007.0
20260506120057 24 121 4.8 4.8 0.00 0.00 0.00 95 1007.0
20260506115556 24 112 9.7 16.1 0.00 0.00 0.00 95 1006.0
20260506115056 24 114 4.8 9.7 0.00 0.00 0.00 95 1006.0
20260506114556 24 116 3.2 8.0 0.00 0.00 0.00 95 1006.0
20260506114057 24 116 6.4 6.4 0.00 0.00 0.00 95 1006.0
20260506113557 24 126 8.0 8.0 0.00 0.00 0.00 95 1006.0
20260506113056 24 134 3.2 11.3 0.00 0.00 0.00 95 1006.0
20260506112557 24 131 3.2 4.8 0.00 0.00 0.00 95 1006.0
20260506112056 24 136 1.6 8.0 0.00 0.00 0.00 95 1006.0
20260506111557 25 132 8.0 14.5 0.00 0.00 0.00 95 1006.0
20260506111056 25 132 6.4 8.0 0.00 0.00 0.00 94 1006.0
20260506110600 25 130 8.0 14.5 0.00 0.00 0.00 94 1006.0
20260506110056 24 116 6.4 9.7 0.00 0.00 0.00 94 1006.0
20260506105556 24 193 1.6 6.4 0.00 0.00 0.00 94 1006.0
20260506105058 24 117 4.8 4.8 0.00 0.00 0.00 94 1006.0
20260506104556 24 151 3.2 12.9 0.00 0.00 0.00 95 1006.0
20260506104100 24 126 3.2 8.0 0.00 0.00 0.00 95 1006.0
20260506103556 24 132 9.7 11.3 0.00 0.00 0.00 95 1006.0
20260506103058 24 145 4.8 8.0 0.00 0.00 0.00 95 1006.0
20260506102556 24 131 3.2 8.0 0.00 0.00 0.00 95 1006.0
20260506102056 24 149 1.6 3.2 0.00 0.00 0.00 95 1006.0
20260506101556 24 195 0.0 3.2 0.00 0.00 0.00 95 1006.0
20260506101056 24 125 4.8 6.4 0.00 0.00 0.00 95 1006.0
20260506100556 24 144 1.6 8.0 0.00 0.00 0.00 95 1006.0
20260506100057 24 117 4.8 8.0 0.00 0.00 0.00 95 1006.0
20260506095556 24 123 6.4 6.4 0.00 0.00 0.00 95 1006.0
20260506095057 24 203 4.8 8.0 0.00 0.00 0.00 95 1006.0
20260506094556 24 114 4.8 11.3 0.00 0.00 0.00 95 1006.0
20260506094059 24 131 4.8 9.7 0.00 0.00 0.00 95 1006.0
20260506093556 24 158 6.4 12.9 0.00 0.00 0.00 95 1006.0
20260506093056 24 124 9.7 12.9 0.00 0.00 0.00 95 1006.0
20260506092556 24 146 1.6 8.0 0.00 0.00 0.00 95 1006.0
20260506092056 24 137 6.4 8.0 0.00 0.00 0.00 95 1006.0
20260506091556 24 153 6.4 12.9 0.00 0.00 0.00 95 1006.0
20260506091056 24 125 3.2 8.0 0.00 0.00 0.00 94 1006.0
20260506090556 24 120 6.4 9.7 0.00 0.00 0.00 94 1006.0
20260506090056 24 129 8.0 9.7 0.00 0.00 0.00 94 1006.0
20260506085556 24 101 3.2 8.0 0.00 0.00 0.00 94 1006.0
20260506085100 24 118 9.7 9.7 0.00 0.00 0.00 94 1006.0
20260506084557 24 132 3.2 8.0 0.00 0.00 0.00 94 1006.0
20260506084056 24 137 11.3 11.3 0.00 0.00 0.00 94 1006.0
20260506083558 24 118 1.6 9.7 0.00 0.00 0.00 94 1006.0
20260506083056 24 131 1.6 11.3 0.00 0.00 0.00 94 1006.0
20260506082556 24 146 3.2 8.0 0.00 0.00 0.00 94 1006.0
20260506082056 24 94 3.2 9.7 0.00 0.00 0.00 94 1006.0
20260506081556 24 133 3.2 4.8 0.00 0.00 0.00 94 1006.0
20260506081056 24 142 3.2 8.0 0.00 0.00 0.00 94 1006.0
20260506080557 24 129 4.8 4.8 0.00 0.00 0.00 93 1006.0
20260506073057 25 133 1.6 6.4 0.00 0.00 0.00 92 1007.0
20260506072556 25 144 8.0 8.0 0.00 0.00 0.00 92 1007.0
20260506072058 25 130 4.8 8.0 0.00 0.00 0.00 92 1007.0
20260506071556 25 124 4.8 6.4 0.00 0.00 0.00 92 1007.0
20260506071056 25 128 3.2 8.0 0.00 0.00 0.00 92 1007.0
20260506070557 25 144 4.8 9.7 0.00 0.00 0.00 92 1007.0
20260506062058 25 112 3.2 8.0 0.00 0.00 0.00 91 1007.0
20260506061557 25 154 6.4 14.5 0.00 0.00 0.00 91 1007.0
20260506061056 25 141 1.6 9.7 0.00 0.00 0.00 91 1007.0
20260506060556 25 136 8.0 9.7 0.00 0.00 0.00 91 1007.0
20260506051056 25 138 6.4 17.7 0.00 0.00 0.00 89 1007.0
20260506050556 25 99 6.4 11.3 0.00 0.00 0.00 89 1007.0
20260506045056 25 132 8.0 12.9 0.00 0.00 0.00 90 1007.0
20260506044556 25 142 3.2 6.4 0.00 0.00 0.00 90 1007.0
20260506044056 25 142 8.0 17.7 0.00 0.00 0.00 90 1007.0
20260506043558 25 142 6.4 14.5 0.00 0.00 0.00 90 1007.0
20260506043056 25 152 0.0 9.7 0.00 0.00 0.00 90 1007.0
20260506042556 25 127 9.7 11.3 0.00 0.00 0.00 90 1007.0
20260506042057 25 132 8.0 17.7 0.00 0.00 0.00 90 1007.0
20260506041557 25 128 14.5 16.1 0.00 0.00 0.00 89 1007.0
20260506041057 25 139 11.3 20.9 0.00 0.00 0.00 89 1007.0
20260506040556 25 131 3.2 14.5 0.00 0.00 0.00 89 1007.0
20260506040056 25 127 9.7 11.3 0.00 0.00 0.00 89 1007.0
20260506035556 25 190 3.2 12.9 0.00 0.00 0.00 89 1007.0
20260506035057 25 142 8.0 9.7 0.00 0.00 0.00 89 1007.0
20260506034556 25 103 3.2 12.9 0.00 0.00 0.00 89 1007.0
20260506034056 25 171 1.6 22.5 0.00 0.00 0.00 89 1007.0
20260506033556 25 112 0.0 6.4 0.00 0.00 0.00 90 1007.0
20260506033057 25 156 6.4 11.3 0.00 0.00 0.00 90 1007.0
20260506032556 25 141 6.4 14.5 0.00 0.00 0.00 90 1007.0
20260506032056 25 127 6.4 11.3 0.00 0.00 0.00 90 1006.0
20260506031556 25 129 6.4 12.9 0.00 0.00 0.00 90 1006.0
20260506031057 25 122 3.2 6.4 0.00 0.00 0.00 90 1006.0
20260506030556 25 143 3.2 14.5 0.00 0.00 0.00 90 1006.0
20260506030057 25 133 6.4 8.0 0.00 0.00 0.00 90 1007.0
20260506025556 25 192 1.6 12.9 0.00 0.00 0.00 90 1006.0
20260506025056 25 118 6.4 9.7 0.00 0.00 0.00 90 1006.0
20260506024556 25 134 6.4 12.9 0.00 0.00 0.00 89 1006.0
20260506024056 25 148 4.8 14.5 0.00 0.00 0.00 89 1006.0
20260506023556 25 133 4.8 8.0 0.00 0.00 0.00 89 1006.0
20260506023056 25 179 4.8 16.1 0.00 0.00 0.00 89 1006.0
20260506022556 25 133 6.4 9.7 0.00 0.00 0.00 89 1006.0
20260506022056 25 173 3.2 8.0 0.00 0.00 0.00 89 1006.0
20260506021556 25 139 8.0 11.3 0.00 0.00 0.00 89 1006.0
20260506021056 25 129 11.3 14.5 0.00 0.00 0.00 89 1006.0
20260506020556 25 124 1.6 8.0 0.00 0.00 0.00 89 1006.0
20260506020057 25 150 8.0 17.7 0.00 0.00 0.00 88 1005.0
20260506015557 25 132 3.2 9.7 0.00 0.00 0.00 88 1005.0
20260506015057 25 152 3.2 8.0 0.00 0.00 0.00 88 1005.0
20260506014556 25 154 1.6 12.9 0.00 0.00 0.00 87 1005.0
20260506014057 25 124 4.8 4.8 0.00 0.00 0.00 87 1005.0
20260506013556 25 170 1.6 9.7 0.00 0.00 0.00 86 1005.0
20260506013058 25 139 8.0 9.7 0.00 0.00 0.00 86 1005.0
20260506012556 25 108 4.8 6.4 0.00 0.00 0.00 86 1005.0
20260506012056 25 148 4.8 12.9 0.00 0.00 0.00 86 1005.0
20260506011556 25 166 3.2 8.0 0.00 0.00 0.00 86 1005.0
20260506011058 26 121 9.7 16.1 0.00 0.00 0.00 86 1005.0
20260506010557 26 145 1.6 6.4 0.00 0.00 0.00 86 1005.0
20260506010057 26 150 4.8 16.1 0.00 0.00 0.00 86 1005.0
20260506005557 26 166 6.4 16.1 0.00 0.00 0.00 85 1005.0
20260506005056 26 141 8.0 20.9 0.00 0.00 0.00 85 1005.0
20260506004556 26 138 1.6 11.3 0.00 0.00 0.00 85 1005.0
20260506004056 26 139 4.8 11.3 0.00 0.00 0.00 84 1005.0
20260506003556 26 143 14.5 17.7 0.00 0.00 0.00 84 1005.0
20260506003056 26 154 6.4 14.5 0.00 0.00 0.00 84 1005.0
20260506002556 26 156 4.8 9.7 0.00 0.00 0.00 84 1005.0
20260506002057 26 137 4.8 12.9 0.00 0.00 0.00 84 1004.0
20260506001556 26 123 3.2 9.7 0.00 0.00 0.00 83 1005.0
20260506001056 26 181 4.8 14.5 0.00 0.00 0.00 84 1005.0
20260506000556 26 175 3.2 12.9 0.00 0.00 0.00 83 1004.0
20260506000057 26 172 6.4 6.4 0.00 0.00 0.00 83 1005.0
20260505235556 26 152 6.4 12.9 0.00 0.00 0.00 83 1005.0
20260505235056 26 156 9.7 20.9 0.00 0.00 0.00 82 1004.0
20260505234556 26 150 8.0 14.5 0.00 0.00 0.00 82 1005.0
20260505234056 26 142 11.3 19.3 0.00 0.00 0.00 82 1004.0
20260505233556 26 139 8.0 19.3 0.00 0.00 0.00 82 1005.0
20260505233057 26 135 6.4 14.5 0.00 0.00 0.00 82 1005.0
20260505232556 26 118 8.0 17.7 0.00 0.00 0.00 81 1005.0
20260505232056 27 154 3.2 9.7 0.00 0.00 0.00 81 1005.0
20260505231557 27 129 9.7 11.3 0.00 0.00 0.00 80 1005.0
20260505231057 27 175 4.8 9.7 0.00 0.00 0.00 80 1005.0
20260505230557 27 140 4.8 9.7 0.00 0.00 0.00 79 1004.0
20260505230056 27 126 1.6 12.9 0.00 0.00 0.00 80 1005.0
20260505225556 27 140 17.7 17.7 0.00 0.00 0.00 79 1005.0
20260505225056 27 151 4.8 12.9 0.00 0.00 0.00 79 1005.0
20260505224557 27 143 3.2 24.1 0.00 0.00 0.00 79 1005.0
20260505224056 27 174 0.0 16.1 0.00 0.00 0.00 80 1005.0
20260505223556 27 164 1.6 12.9 0.00 0.00 0.00 80 1005.0
20260505223056 27 172 3.2 17.7 0.00 0.00 0.00 80 1005.0
20260505222600 27 160 4.8 19.3 0.00 0.00 0.00 80 1005.0
20260505222056 27 114 4.8 19.3 0.00 0.00 0.00 80 1005.0
20260505221556 27 121 9.7 9.7 0.00 0.00 0.00 80 1005.0
20260505221057 27 227 6.4 8.0 0.00 0.00 0.00 80 1005.0
20260505220557 27 130 3.2 11.3 0.00 0.00 0.00 80 1005.0
20260505220056 27 121 11.3 16.1 0.00 0.00 0.00 80 1005.0
20260505215556 27 159 6.4 9.7 0.00 0.00 0.00 80 1005.0
20260505215056 27 167 4.8 17.7 0.00 0.00 0.00 79 1005.0
20260505214556 27 180 4.8 11.3 0.00 0.00 0.00 79 1005.0
20260505214057 27 130 19.3 20.9 0.00 0.00 0.00 77 1005.0
20260505213556 27 107 3.2 11.3 0.00 0.00 0.00 78 1005.0
20260505213056 27 141 4.8 6.4 0.00 0.00 0.00 78 1005.0
20260505212556 27 143 6.4 9.7 0.00 0.00 0.00 77 1005.0
20260505212056 27 196 3.2 14.5 0.00 0.00 0.00 76 1005.0
20260505211556 28 162 3.2 11.3 0.00 0.00 0.00 75 1005.0
20260505211056 28 229 6.4 8.0 0.00 0.00 0.00 75 1005.0
20260505210556 28 128 8.0 8.0 0.00 0.00 0.00 74 1005.0
20260505210056 28 118 8.0 11.3 0.00 0.00 0.00 75 1005.0
20260505205556 28 228 6.4 14.5 0.00 0.00 0.00 75 1005.0
20260505205056 28 133 9.7 14.5 0.00 0.00 0.00 74 1006.0
20260505204556 28 205 4.8 9.7 0.00 0.00 0.00 74 1006.0
20260505204057 28 126 3.2 8.0 0.00 0.00 0.00 77 1006.0
20260505203556 28 151 3.2 6.4 0.00 0.00 0.00 77 1006.0
20260505203057 28 231 8.0 11.3 0.00 0.00 0.00 76 1006.0
20260505202556 28 166 3.2 11.3 0.00 0.00 0.00 76 1006.0
20260505202056 28 157 3.2 9.7 0.00 0.00 0.00 76 1006.0
20260505201556 28 212 3.2 14.5 0.00 0.00 0.00 76 1006.0
20260505201057 28 137 3.2 14.5 0.00 0.00 0.00 77 1006.0
20260505200556 28 230 4.8 9.7 0.00 0.00 0.00 77 1006.0
20260505200057 28 217 1.6 9.7 0.00 0.00 0.00 76 1006.0
20260505195556 28 210 0.0 4.8 0.00 0.00 0.00 78 1006.0
20260505195056 28 148 1.6 16.1 0.00 0.00 0.00 79 1006.0
20260505194556 28 188 4.8 9.7 0.00 0.00 0.00 79 1006.0
20260505194056 28 193 3.2 6.4 0.00 0.00 0.00 80 1007.0
20260505193556 28 62 0.0 4.8 0.00 0.00 0.00 78 1006.0
20260505193057 28 117 4.8 8.0 0.00 0.00 0.00 78 1006.0
20260505192556 28 75 0.0 4.8 0.00 0.00 0.00 78 1006.0
20260505192058 27 195 4.8 12.9 0.00 0.00 0.00 78 1006.0
20260505191557 27 264 3.2 6.4 0.00 0.00 0.00 79 1007.0
20260505191056 27 164 6.4 9.7 0.00 0.00 0.00 78 1006.0
20260505190556 27 193 4.8 8.0 0.00 0.00 0.00 78 1007.0
20260505190056 27 112 4.8 6.4 0.00 0.00 0.00 79 1006.0
20260505185557 27 133 4.8 11.3 0.00 0.00 0.00 80 1007.0